User: anonymous   Login
Location: Lake Almanor
(40.2485°N, 121.1442°W)
Time: 12:12:38
(UTC-08:00)
Language:

N. Korean satellite - Orbit

View from above orbital plane
View from above orbital plane
View from above satellite
View from above satellite

Ground track
Ground track

The orbit data is extracted from the following two-line orbital elements,

1 39026U 12072A   20054.09122642  .00000917  00000-0  35308-4 0  9999
2 39026  97.2197  54.3470 0035948 295.6901  64.0628 15.28350975399687
Epoch (UTC): 23 February 2020 02:11:21
Eccentricity: 0.0035948
inclination: 97.2197°
perigee height: 456 km
apogee height: 505 km
right ascension of ascending node: 54.3470°
argument of perigee: 295.6901°
revolutions per day: 15.28350975
mean anomaly at epoch: 64.0628°
orbit number at epoch: 39968

The dashed part of the orbit path shows where the satellite is in the earth's shadow,  

DLR